Location: A�t Lahcen
(32.8243°N, 5.4246°W)
Time: 00:59:02
(UTC+00:00)

Cosmos 2292 Rocket - Pass Details

Date: 27 January 2021
Orbit: 380 x 1450 km, 83.0° (Epoch: 26 February)

Event Time Altitude Azimuth Distance (km) Brightness Sun altitude
Rises 06:28:20 0° 3° (N) 2,329 6.4 -11.1°
Reaches altitude 10° 06:30:15 10° 11° (NNE) 1,528 5.6 -10.7°
Maximum altitude 06:33:21 41° 84° (E) 707 4.5 -10.1°
Drops below altitude 10° 06:37:07 10° 156° (SSE) 1,865 6.6 -9.3°
Sets 06:39:41 0° 163° (SSE) 2,931 7.5 -8.8°
